[[{"header":{"parameterUnit":"m.s-1","parameterCategory":2,"la1":30.2991,"la2":30.254,"lo1":-89.0895,"lo2":-89.0444,"dy":0.0017,"dx":0.0017,"nx":28,"ny":28,"refTime":"2025-06-13T09:00:00:Z","depth":"0","parameterNumber":2,"parameterNumberName":"U-component_of_CURRENTS"},"data":[0,0,0,0,0,0,0,0,0,0,0,0,0,0,0,0,0,0,0,0,0,0,0,0,0,0,0,0,0,0,0,0,0,0,0,0,0,0,0,0,0,0,0,0,0,0,0,0,0,0,0,0,0,0,0,0,0,0,0.2392,0.2391,0,0.2372,0.2372,0.2372,0.2342,0.2341,0.2341,0.234,0.231,0.231,0.2309,0,0,0,0,0,0,0,0,0,0,0,0,0,0.2425,0.2425,0.2392,0.2391,0.2391,0.2372,0.2372,0.2372,0.2342,0.2341,0.2341,0.234,0.231,0.231,0.2309,0,0,0,0,0,0,0,0,0,0,0,0,0,0.2408,0.2424,0.2392,0.2375,0.2374,0.2373,0.2372,0.2372,0.2342,0.2341,0.2341,0.234,0.231,0.231,0.2309,0.2317,0,0,0.2307,0.2307,0,0,0,0,0,0,0,0,0.2409,0.2406,0.2378,0.2376,0.2375,0.236,0.2373,0.2353,0.2342,0.2352,0.234,0.234,0.2327,0.2325,0.2321,0.2316,0.2315,0.2307,0.2307,0.2307,0.2306,0,0,0,0,0,0,0,0.241,0.2407,0.2382,0.2378,0.2376,0.2377,0.2373,0.2369,0.2342,0.2351,0.235,0.235,0.2326,0.2322,0.232,0.2314,0.2307,0.2307,0.2306,0.2306,0.2348,0.235,0,0,0,0,0,0,0.2414,0.2408,0.2383,0.2382,0.2392,0.2377,0.2373,0.2364,0.2342,0.2339,0.2351,0.2349,0.2323,0.2321,0.2319,0.2352,0.2307,0.2306,0.2306,0.2347,0.2349,0.235,0,0,0,0,0,0,0.2415,0.2412,0.2384,0.2396,0.2393,0.2377,0.2368,0.2364,0.2361,0.2342,0.2338,0.2352,0.2322,0.232,0.2323,0.2349,0.2306,0.2305,0.2345,0.2347,0.235,0.2402,0,0,0,0,0,0,0.2416,0.2412,0.241,0.2396,0.2392,0.2385,0.2368,0.2364,0.2363,0.2361,0.2342,0.2338,0.2322,0.2324,0.2323,0.2348,0.2305,0.2343,0.2346,0.2349,0.2398,0.2406,0.2412,0,0,0,0,0,0.2417,0.2414,0.241,0.2407,0.2389,0.2385,0.2383,0.2369,0.2364,0.2364,0.2357,0.2339,0.2341,0.2325,0.2322,0.2348,0.2342,0.2345,0.2349,0.2395,0.2404,0.2412,0,0,0,0,0,0,0.2427,0.241,0.2406,0.2397,0.2394,0.2381,0.2381,0.2376,0.237,0.237,0.235,0.2347,0.2363,0.235,0.2333,0.2371,0.2342,0.2345,0.2378,0.2387,0.2393,0.2387,0.2304,0,0,0,0,0,0.243,0.2421,0.2412,0.2407,0.2406,0.2397,0.2395,0.239,0.2383,0.238,0.2365,0.2364,0.2376,0.2376,0.2375,0.2391,0.2419,0.241,0.2417,0.2423,0.2418,0.2508,0.2523,0.2361,0.2361,0.2361,0,0,0.2431,0.2423,0.2418,0.2409,0.2405,0.241,0.2394,0.2395,0.2404,0.2379,0.2382,0.2383,0.2386,0.2405,0.2412,0.2397,0.2486,0.2427,0.2432,0.2423,0.2514,0.253,0.2544,0.2364,0.2363,0.2363,0,0,0.2434,0.2425,0.2421,0.2422,0.2422,0.2422,0.2426,0.2417,0.2416,0.2427,0.242,0.2438,0.2437,0.2449,0.2458,0.2504,0.252,0.2507,0.2534,0.2624,0.2638,0.2651,0.2716,0.2735,0.2511,0.2511,0.2511,0,0.2439,0.2429,0.2422,0.2425,0.2427,0.243,0.2435,0.2444,0.2437,0.2448,0.2435,0.247,0.2463,0.2511,0.252,0.252,0.2566,0.2501,0.2634,0.2647,0.2659,0.2723,0.2743,0.2514,0.2513,0.2513,0.2513,0,0.2438,0.2436,0.2437,0.244,0.2446,0.2451,0.2463,0.2474,0.2481,0.2491,0.2531,0.2534,0.2559,0.2566,0.255,0.2633,0.2637,0.2634,0.2613,0.2679,0.2742,0.2761,0.2518,0.2517,0.2516,0.2515,0,0,0.243,0.2434,0.2434,0.2435,0.2453,0.2454,0.2487,0.2513,0.2547,0.2556,0.261,0.2621,0.2632,0.2642,0.2644,0.27,0.282,0.2698,0.2702,0.2763,0.3015,0.2888,0.2897,0.2852,0.2855,0.2858,0.3028,0,0.243,0.2432,0.2439,0.2449,0.245,0.2472,0.2503,0.2535,0.2572,0.2629,0.2662,0.2712,0.2664,0.2694,0.2745,0.2817,0.2872,0.2773,0.2941,0.2946,0.2825,0.2915,0.2719,0.2843,0.3047,0.305,0.3053,0,0.2419,0.2423,0.2426,0.2448,0.2452,0.2467,0.2523,0.2555,0.2647,0.2683,0.2747,0.2785,0.2873,0.2828,0.2977,0.2923,0.2962,0.3001,0.301,0.288,0.2854,0.2809,0.287,0.2795,0.3082,0.308,0.3078,0,0.2396,0.2411,0.241,0.2415,0.2448,0.2461,0.2491,0.2567,0.2618,0.2736,0.2813,0.2901,0.2989,0.3057,0.3114,0.3076,0.328,0.325,0.3166,0.3158,0.3013,0.2985,0.3014,0.3346,0.3346,0.3345,0.3345,0,0.2379,0.2377,0.2397,0.2393,0.2412,0.2446,0.2497,0.2548,0.2664,0.2753,0.2842,0.2943,0.3055,0.3171,0.3189,0.3241,0.3352,0.3184,0.32,0.3024,0.2996,0.2937,0.2905,0.3352,0.335,0.3349,0.3348,0,0.2341,0.2354,0.2353,0.2383,0.2394,0.2408,0.2489,0.2542,0.2663,0.28,0.2853,0.3034,0.3174,0.3254,0.3396,0.3345,0.3279,0.3376,0.3141,0.3122,0.2912,0.2889,0.2776,0.2698,0.3321,0.3319,0.3317,0,0.2318,0.2313,0.2333,0.2335,0.2343,0.2378,0.2412,0.252,0.2595,0.284,0.2912,0.3105,0.3195,0.335,0.3302,0.3322,0.3229,0.3143,0.3002,0.288,0.2872,0.2724,0.2658,0.2856,0.2851,0.2847,0.2843,0,0.2278,0.2284,0.2284,0.2291,0.2308,0.2343,0.2407,0.247,0.2631,0.2756,0.293,0.3029,0.3156,0.3088,0.3102,0.3077,0.2933,0.3048,0.3011,0.257,0.2329,0.2267,0.2763,0.2804,0.2808,0.2811,0.2813,0.2814,0.2248,0.2237,0.2239,0.2237,0.2262,0.2298,0.2319,0.2413,0.2519,0.2676,0.2823,0.2885,0.2891,0.2859,0.2828,0.2626,0.2647,0.2502,0.2512,0.2394,0.2209,0.2588,0.2578,0.2581,0.2583,0.2585,0.2586,0,0.2202,0.2192,0.2187,0.2188,0.2193,0.2229,0.2306,0.232,0.2402,0.2506,0.2599,0.2546,0.2457,0.2435,0.2255,0.2118,0.1995,0.206,0.1845,0.1832,0.2262,0.213,0.1913,0.1913,0.1913,0.1913,0.1913,0.1913,0.2179,0.2146,0.2134,0.2111,0.2119,0.2122,0.215,0.2173,0.2213,0.2193,0.2138,0.2152,0.2158,0.2016,0.1838,0.1785,0.1642,0.1474,0.1565,0.1903,0.1945,0.1986,0.1855,0.1584,0.1584,0.099,0.0986,0.0983]},{"header":{"parameterUnit":"m.s-1","parameterCategory":2,"la1":30.2991,"la2":30.254,"lo1":-89.0895,"lo2":-89.0444,"dy":0.0017,"dx":0.0017,"nx":28,"ny":28,"refTime":"2025-06-13T09:00:00:Z","depth":"0","parameterNumber":3,"parameterNumberName":"V-component_of_CURRENTS"},"data":[0,0,0,0,0,0,0,0,0,0,0,0,0,0,0,0,0,0,0,0,0,0,0,0,0,0,0,0,0,0,0,0,0,0,0,0,0,0,0,0,0,0,0,0,0,0,0,0,0,0,0,0,0,0,0,0,0,0,0.031,0.031,0,0.0288,0.0287,0.0287,0.0271,0.0271,0.027,0.027,0.024,0.0239,0.0239,0,0,0,0,0,0,0,0,0,0,0,0,0,0.0304,0.0305,0.031,0.031,0.031,0.0288,0.0287,0.0287,0.0271,0.0271,0.027,0.027,0.024,0.0239,0.0239,0,0,0,0,0,0,0,0,0,0,0,0,0,0.0296,0.0305,0.031,0.0299,0.0298,0.0288,0.0287,0.0287,0.0271,0.0271,0.027,0.027,0.0241,0.024,0.0238,0.0234,0,0,0.0235,0.0235,0,0,0,0,0,0,0,0,0.0297,0.0297,0.0301,0.03,0.0299,0.0282,0.0274,0.0269,0.0271,0.028,0.027,0.027,0.0254,0.0252,0.0247,0.0233,0.0232,0.0235,0.0234,0.0234,0.0234,0,0,0,0,0,0,0,0.0298,0.0297,0.0301,0.0301,0.0299,0.0284,0.0283,0.0273,0.0268,0.028,0.0278,0.0277,0.0253,0.0248,0.0246,0.0231,0.0235,0.0234,0.0233,0.0233,0.0221,0.0221,0,0,0,0,0,0,0.0304,0.0298,0.0301,0.03,0.0298,0.0284,0.0283,0.0287,0.0268,0.0265,0.0277,0.0276,0.025,0.0248,0.0245,0.0256,0.0234,0.0233,0.0232,0.0221,0.0221,0.0221,0,0,0,0,0,0,0.0304,0.0304,0.0302,0.0298,0.0297,0.0285,0.0289,0.0287,0.0285,0.0266,0.0263,0.0279,0.025,0.0247,0.0242,0.0254,0.0232,0.0231,0.022,0.0221,0.0221,0.0266,0,0,0,0,0,0,0.0304,0.0305,0.0308,0.0299,0.0298,0.0305,0.0289,0.0287,0.0285,0.0284,0.0267,0.0263,0.025,0.0243,0.0241,0.0252,0.0231,0.022,0.022,0.0221,0.0264,0.0268,0.0271,0,0,0,0,0,0.0304,0.0313,0.0309,0.0309,0.0304,0.0305,0.0303,0.0293,0.0285,0.029,0.0276,0.0264,0.0245,0.0243,0.0239,0.0251,0.0219,0.022,0.0221,0.0263,0.0267,0.0271,0,0,0,0,0,0,0.0311,0.0312,0.0307,0.0316,0.0314,0.0303,0.0303,0.0297,0.029,0.0286,0.0268,0.0264,0.0265,0.025,0.0248,0.0248,0.0231,0.0231,0.0263,0.0268,0.0271,0.0289,0.023,0,0,0,0,0,0.0315,0.0323,0.032,0.0326,0.0326,0.0315,0.0313,0.0308,0.03,0.0296,0.0284,0.0271,0.0264,0.026,0.025,0.025,0.0246,0.0255,0.0258,0.0262,0.0273,0.028,0.0286,0.0224,0.0224,0.0224,0,0,0.0318,0.032,0.0324,0.0328,0.0323,0.0332,0.0314,0.0315,0.0326,0.0294,0.0302,0.0284,0.0267,0.0268,0.0267,0.0258,0.0275,0.0263,0.0266,0.0276,0.0281,0.0288,0.0293,0.0224,0.0224,0.0224,0,0,0.0333,0.0331,0.0345,0.0348,0.0348,0.0343,0.0347,0.034,0.0341,0.0345,0.0325,0.0317,0.0305,0.0297,0.0291,0.0308,0.0294,0.0301,0.0335,0.0341,0.0346,0.0351,0.0348,0.0352,0.0303,0.0303,0.0303,0,0.0336,0.0357,0.0349,0.0364,0.0373,0.0353,0.0373,0.037,0.0363,0.037,0.0354,0.0345,0.0322,0.0334,0.0333,0.0318,0.0316,0.032,0.0347,0.0352,0.0356,0.0351,0.0356,0.0305,0.0305,0.0305,0.0305,0,0.0366,0.0381,0.0389,0.0406,0.0413,0.0425,0.0424,0.0428,0.0422,0.042,0.043,0.0402,0.0401,0.0386,0.0362,0.038,0.0366,0.0352,0.034,0.0365,0.0358,0.0362,0.0308,0.0308,0.0307,0.0306,0,0,0.038,0.0406,0.0409,0.043,0.0439,0.0451,0.0468,0.0485,0.051,0.0491,0.053,0.0493,0.0478,0.0471,0.0441,0.0436,0.0448,0.0406,0.0405,0.0409,0.0459,0.0425,0.0425,0.044,0.0441,0.0442,0.044,0,0.0407,0.0451,0.0456,0.0497,0.0521,0.0517,0.0543,0.0553,0.0559,0.0587,0.056,0.0581,0.0513,0.0522,0.0501,0.0476,0.046,0.0449,0.0428,0.0428,0.04,0.0429,0.0467,0.0467,0.0444,0.0444,0.0445,0,0.0439,0.0467,0.0515,0.0561,0.0571,0.0591,0.0636,0.066,0.0683,0.0693,0.0696,0.0682,0.0676,0.0618,0.0576,0.0575,0.0517,0.0482,0.0482,0.044,0.0401,0.0438,0.0474,0.044,0.045,0.0449,0.0449,0,0.0466,0.0511,0.0554,0.0568,0.0611,0.0634,0.066,0.0689,0.0737,0.0771,0.0821,0.0788,0.0817,0.0736,0.065,0.0621,0.0608,0.0562,0.0472,0.0469,0.0492,0.0489,0.05,0.0526,0.0526,0.0526,0.0526,0,0.05,0.0534,0.057,0.0595,0.0658,0.0675,0.0747,0.0768,0.0832,0.0923,0.0884,0.096,0.0852,0.0827,0.0705,0.0612,0.065,0.0489,0.0473,0.0506,0.0505,0.0466,0.0423,0.0526,0.0526,0.0526,0.0526,0,0.0525,0.0545,0.0601,0.0653,0.0673,0.0721,0.0811,0.0873,0.0927,0.1052,0.108,0.1111,0.1086,0.0955,0.0852,0.0714,0.0574,0.0553,0.0593,0.0579,0.0434,0.039,0.0361,0.0321,0.0454,0.0453,0.0452,0,0.0543,0.0573,0.0643,0.0683,0.0708,0.078,0.0843,0.0911,0.0999,0.1159,0.1239,0.1262,0.1299,0.1123,0.0894,0.0681,0.0591,0.0553,0.0489,0.0444,0.0384,0.0355,0.0322,0.0539,0.0539,0.0539,0.0539,0,0.0579,0.06,0.0647,0.0729,0.0795,0.0887,0.0987,0.1077,0.12,0.1333,0.1503,0.1549,0.1402,0.1232,0.0927,0.0764,0.0532,0.0545,0.0509,0.046,0.0424,0.0373,0.051,0.054,0.054,0.054,0.054,0.054,0.0603,0.0641,0.0699,0.0778,0.0861,0.0987,0.1092,0.1237,0.1416,0.164,0.1672,0.1766,0.1524,0.1126,0.0914,0.0569,0.0532,0.0459,0.0413,0.0391,0.0347,0.0471,0.0468,0.0468,0.0467,0.0467,0.0467,0,0.063,0.0673,0.0746,0.0848,0.0947,0.0992,0.1187,0.1329,0.1572,0.1742,0.1891,0.1812,0.1526,0.1186,0.0732,0.0504,0.0408,0.0383,0.0379,0.0348,0.0487,0.0486,0.0477,0.0477,0.0477,0.0477,0.0477,0.0477,0.0644,0.0706,0.0742,0.0892,0.0977,0.115,0.1277,0.1512,0.1676,0.1905,0.1955,0.1966,0.1759,0.1047,0.0605,0.047,0.033,0.0279,0.0191,0.0322,0.0327,0.0331,0.0323,0.028,0.028,0.0104,0.0102,0.0101]}],[{"header":{"parameterUnit":"m.s-1","parameterCategory":2,"la1":30.2991,"la2":30.254,"lo1":-89.0895,"lo2":-89.0444,"dy":0.0017,"dx":0.0017,"nx":28,"ny":28,"refTime":"2025-06-13T09:00:00:Z","depth":"2","parameterNumber":2,"parameterNumberName":"U-component_of_CURRENTS"},"data":[0,0,0,0,0,0,0,0,0,0,0,0,0,0,0,0,0,0,0,0,0,0,0,0,0,0,0,0,0,0,0,0,0,0,0,0,0,0,0,0,0,0,0,0,0,0,0,0,0,0,0,0,0,0,0,0,0,0,0.23,0.23,0,0.2285,0.2285,0.2284,0.2262,0.2262,0.2261,0.2261,0.2239,0.2238,0.2238,0,0,0,0,0,0,0,0,0,0,0,0,0,0.2328,0.2327,0.23,0.23,0.23,0.2285,0.2285,0.2284,0.2262,0.2262,0.2261,0.2261,0.2239,0.2238,0.2238,0,0,0,0,0,0,0,0,0,0,0,0,0,0.2313,0.2327,0.23,0.2288,0.2287,0.2285,0.2285,0.2284,0.2262,0.2262,0.2261,0.2261,0.2239,0.2238,0.2238,0.2242,0,0,0.2236,0.2236,0,0,0,0,0,0,0,0,0.2314,0.2312,0.229,0.2289,0.2288,0.2276,0.2286,0.227,0.2262,0.227,0.2261,0.2261,0.2252,0.225,0.2246,0.2241,0.224,0.2236,0.2236,0.2235,0.2235,0,0,0,0,0,0,0,0.2315,0.2313,0.2293,0.229,0.2289,0.229,0.2287,0.2283,0.2262,0.2269,0.2268,0.2269,0.2251,0.2247,0.2245,0.224,0.2236,0.2236,0.2235,0.2235,0.2277,0.2278,0,0,0,0,0,0,0.2319,0.2313,0.2293,0.2292,0.2302,0.229,0.2287,0.2279,0.2262,0.226,0.2269,0.2268,0.2248,0.2246,0.2245,0.228,0.2235,0.2235,0.2235,0.2276,0.2277,0.2279,0,0,0,0,0,0,0.232,0.2317,0.2294,0.2304,0.2302,0.229,0.2282,0.2279,0.228,0.2262,0.2259,0.2274,0.2247,0.2245,0.2251,0.2278,0.2235,0.2234,0.2274,0.2276,0.2278,0.233,0,0,0,0,0,0,0.2321,0.2317,0.2318,0.2304,0.2301,0.2296,0.2282,0.2279,0.2282,0.228,0.2265,0.2262,0.2247,0.2252,0.2251,0.2276,0.2234,0.2272,0.2275,0.2278,0.2327,0.2334,0.234,0,0,0,0,0,0.2321,0.232,0.2318,0.2316,0.23,0.2296,0.2295,0.2284,0.2283,0.2284,0.228,0.2263,0.2269,0.2253,0.225,0.2276,0.2271,0.2274,0.2277,0.2324,0.2333,0.234,0,0,0,0,0,0,0.2331,0.2317,0.2314,0.2308,0.2306,0.2293,0.2295,0.2292,0.229,0.2292,0.2274,0.2271,0.2289,0.2277,0.226,0.2299,0.227,0.2273,0.2307,0.2315,0.2321,0.2316,0.2233,0,0,0,0,0,0.2335,0.2329,0.232,0.2318,0.2318,0.2311,0.231,0.2306,0.2302,0.23,0.2289,0.229,0.2301,0.2302,0.2302,0.2318,0.2338,0.2337,0.2344,0.235,0.2346,0.2421,0.2435,0.229,0.229,0.229,0,0,0.2337,0.2331,0.2327,0.232,0.2317,0.2322,0.2309,0.2313,0.2322,0.2299,0.2307,0.2309,0.231,0.233,0.2338,0.2324,0.2403,0.2354,0.2359,0.2351,0.2426,0.2441,0.2453,0.2292,0.2291,0.2291,0,0,0.2341,0.2336,0.2334,0.2334,0.2336,0.2336,0.2341,0.2335,0.2337,0.235,0.2344,0.2363,0.2364,0.2375,0.2382,0.2427,0.2436,0.2432,0.246,0.2534,0.2547,0.2558,0.2606,0.2621,0.2436,0.2436,0.2436,0,0.2348,0.234,0.2335,0.2337,0.234,0.2346,0.2351,0.236,0.2357,0.2369,0.2359,0.2394,0.2389,0.2432,0.2443,0.2442,0.2478,0.2428,0.2544,0.2556,0.2566,0.2613,0.2629,0.2439,0.2438,0.2438,0.2438,0,0.2347,0.2347,0.2349,0.2354,0.2359,0.2365,0.2377,0.239,0.24,0.2412,0.2451,0.2455,0.248,0.2487,0.2474,0.2548,0.2547,0.2545,0.2523,0.2584,0.2629,0.2645,0.2443,0.2442,0.2441,0.244,0,0,0.2341,0.2347,0.2347,0.2349,0.2367,0.2367,0.24,0.2424,0.2458,0.2471,0.2518,0.2535,0.2549,0.2558,0.256,0.2609,0.2711,0.2607,0.2609,0.2653,0.287,0.2759,0.2766,0.274,0.2743,0.2745,0.2873,0,0.2343,0.2345,0.2352,0.2363,0.2364,0.2386,0.2414,0.2445,0.2482,0.2532,0.2564,0.2613,0.2577,0.2608,0.2652,0.2707,0.2755,0.2676,0.2804,0.2807,0.2701,0.2781,0.2499,0.2579,0.2888,0.289,0.2892,0,0.2333,0.2337,0.2342,0.2362,0.2366,0.2381,0.2432,0.2463,0.2545,0.2581,0.2641,0.2678,0.2755,0.2722,0.2843,0.2801,0.2832,0.2862,0.2869,0.2753,0.2726,0.2568,0.2596,0.2919,0.2917,0.2915,0.2913,0,0.2311,0.2327,0.2328,0.2332,0.2363,0.2377,0.2406,0.2476,0.2526,0.2631,0.2701,0.2778,0.2846,0.2911,0.2959,0.2928,0.3089,0.3063,0.2986,0.2978,0.2754,0.272,0.3144,0.3144,0.3144,0.3143,0.3143,0,0.2295,0.2295,0.2317,0.2314,0.2333,0.2364,0.2413,0.2461,0.2567,0.2642,0.2731,0.2813,0.2902,0.2995,0.3018,0.3053,0.3148,0.3001,0.3011,0.2762,0.273,0.3027,0.3012,0.3148,0.3147,0.3146,0.3145,0,0.226,0.2274,0.2276,0.2306,0.2317,0.2331,0.2411,0.246,0.2573,0.2685,0.2735,0.2883,0.2991,0.3059,0.3171,0.3126,0.3175,0.3154,0.2838,0.2806,0.2997,0.2984,0.3097,0.3094,0.3092,0.309,0.3088,0,0.2239,0.2236,0.2258,0.226,0.227,0.2306,0.2338,0.2443,0.251,0.2713,0.277,0.2923,0.2971,0.3093,0.3055,0.3075,0.3153,0.282,0.2689,0.2998,0.2997,0.2987,0.2976,0.2424,0.2417,0.2412,0.2407,0,0.2202,0.2211,0.2212,0.2219,0.2238,0.2269,0.2328,0.238,0.2519,0.2621,0.275,0.2812,0.2896,0.277,0.2783,0.2755,0.2791,0.2703,0.3151,0.2464,0.237,0.2367,0.2378,0.2357,0.2362,0.2366,0.2368,0.237,0.2174,0.2165,0.2169,0.2167,0.2193,0.2215,0.2215,0.2289,0.2368,0.2466,0.2597,0.2584,0.2589,0.2453,0.2376,0.2311,0.2513,0.2378,0.2394,0.2416,0.23,0.2205,0.2139,0.2142,0.2145,0.2148,0.2151,0,0.213,0.2122,0.2117,0.2117,0.2117,0.2156,0.2194,0.217,0.2195,0.2268,0.2312,0.2096,0.198,0.2003,0.1807,0.1789,0.1754,0.1714,0.1642,0.1694,0.1739,0.1586,0.1238,0.1235,0.1232,0.123,0,0,0.2107,0.2075,0.2062,0.2032,0.2041,0.2005,0.1998,0.197,0.1967,0.1899,0.1844,0.194,0.1958,0.1601,0.1528,0.1352,0.1519,0.1286,0.2019,0.1988,0.2031,0.212,0.1943,0,0,0,0,0]},{"header":{"parameterUnit":"m.s-1","parameterCategory":2,"la1":30.2991,"la2":30.254,"lo1":-89.0895,"lo2":-89.0444,"dy":0.0017,"dx":0.0017,"nx":28,"ny":28,"refTime":"2025-06-13T09:00:00:Z","depth":"2","parameterNumber":3,"parameterNumberName":"V-component_of_CURRENTS"},"data":[0,0,0,0,0,0,0,0,0,0,0,0,0,0,0,0,0,0,0,0,0,0,0,0,0,0,0,0,0,0,0,0,0,0,0,0,0,0,0,0,0,0,0,0,0,0,0,0,0,0,0,0,0,0,0,0,0,0,0.0207,0.0207,0,0.0185,0.0185,0.0184,0.0171,0.0171,0.0171,0.0171,0.0142,0.0141,0.014,0,0,0,0,0,0,0,0,0,0,0,0,0,0.0203,0.0204,0.0207,0.0207,0.0207,0.0185,0.0184,0.0184,0.0171,0.0171,0.0171,0.0171,0.0142,0.0141,0.014,0,0,0,0,0,0,0,0,0,0,0,0,0,0.0195,0.0204,0.0207,0.0198,0.0197,0.0185,0.0184,0.0184,0.0171,0.0171,0.0171,0.0171,0.0142,0.0141,0.014,0.0133,0,0,0.0136,0.0136,0,0,0,0,0,0,0,0,0.0195,0.0195,0.02,0.0199,0.0198,0.0181,0.0172,0.0167,0.0171,0.018,0.0171,0.0171,0.0155,0.0153,0.0147,0.0131,0.013,0.0136,0.0136,0.0135,0.0135,0,0,0,0,0,0,0,0.0196,0.0196,0.0198,0.02,0.0198,0.0183,0.0182,0.0171,0.0167,0.0179,0.0178,0.0177,0.0154,0.0148,0.0147,0.013,0.0136,0.0135,0.0135,0.0134,0.0119,0.012,0,0,0,0,0,0,0.0202,0.0196,0.0198,0.0197,0.0197,0.0183,0.0182,0.0186,0.0167,0.0165,0.0177,0.0176,0.015,0.0148,0.0145,0.0156,0.0135,0.0134,0.0133,0.0119,0.012,0.012,0,0,0,0,0,0,0.0202,0.0203,0.0199,0.0196,0.0195,0.0184,0.0188,0.0185,0.0185,0.0166,0.0163,0.018,0.015,0.0147,0.0142,0.0154,0.0133,0.0132,0.0119,0.0119,0.012,0.0164,0,0,0,0,0,0,0.0202,0.0203,0.0207,0.0197,0.0195,0.0201,0.0188,0.0185,0.0184,0.0183,0.0167,0.0164,0.015,0.0144,0.0141,0.0152,0.0131,0.0118,0.0119,0.012,0.0162,0.0166,0.0169,0,0,0,0,0,0.0202,0.0211,0.0208,0.0208,0.0202,0.0202,0.02,0.019,0.0185,0.0189,0.0177,0.0165,0.0146,0.0144,0.014,0.0151,0.0118,0.0119,0.012,0.016,0.0165,0.0169,0,0,0,0,0,0,0.0209,0.021,0.0206,0.0214,0.0212,0.02,0.0201,0.0195,0.0188,0.0186,0.0168,0.0164,0.0165,0.015,0.0148,0.0147,0.013,0.013,0.0162,0.0167,0.017,0.0188,0.013,0,0,0,0,0,0.0213,0.0221,0.0217,0.0223,0.0223,0.0213,0.0211,0.0206,0.0198,0.0195,0.0184,0.0172,0.0164,0.016,0.0149,0.0148,0.0139,0.0152,0.0156,0.0159,0.0171,0.0169,0.0174,0.0122,0.0122,0.0122,0,0,0.0216,0.0218,0.0221,0.0225,0.022,0.0229,0.0212,0.0213,0.0223,0.0193,0.0201,0.0184,0.0166,0.0167,0.0166,0.0157,0.0166,0.016,0.0163,0.0173,0.017,0.0175,0.018,0.0123,0.0123,0.0123,0,0,0.023,0.0229,0.0242,0.0245,0.0245,0.024,0.0244,0.0238,0.0239,0.0243,0.0224,0.0216,0.0203,0.0194,0.0188,0.0204,0.0185,0.0198,0.0231,0.0228,0.0233,0.0237,0.0222,0.0224,0.0199,0.0199,0.0199,0,0.0234,0.0253,0.0245,0.026,0.0268,0.025,0.0268,0.0265,0.026,0.0266,0.0253,0.0242,0.022,0.0227,0.0228,0.0213,0.0205,0.0217,0.0234,0.0238,0.0241,0.0225,0.0227,0.0201,0.0201,0.0201,0.02,0,0.0261,0.0275,0.0283,0.0299,0.0305,0.0316,0.0315,0.032,0.0316,0.0314,0.0322,0.0295,0.0291,0.0278,0.0256,0.0269,0.0253,0.024,0.0226,0.0249,0.023,0.0232,0.0204,0.0204,0.0203,0.0202,0,0,0.0274,0.0299,0.0302,0.0322,0.033,0.0341,0.0357,0.0372,0.0395,0.0379,0.041,0.0379,0.0365,0.0356,0.0328,0.0319,0.0321,0.0291,0.029,0.0282,0.0311,0.0289,0.0288,0.0313,0.0314,0.0314,0.0285,0,0.03,0.0342,0.0346,0.0384,0.0407,0.0403,0.0427,0.0436,0.0441,0.0463,0.0436,0.0454,0.0396,0.0404,0.0381,0.0347,0.0328,0.033,0.0285,0.0284,0.0267,0.029,0.0303,0.0278,0.0286,0.0286,0.0287,0,0.0331,0.0357,0.0402,0.0443,0.0454,0.0472,0.0513,0.0534,0.0551,0.056,0.056,0.0544,0.0532,0.0484,0.0428,0.0433,0.0375,0.0338,0.0335,0.0305,0.0266,0.0258,0.028,0.0288,0.0288,0.0288,0.0288,0,0.0357,0.0398,0.0439,0.0452,0.0491,0.0513,0.0537,0.0563,0.0608,0.0631,0.0674,0.0635,0.0645,0.0571,0.0482,0.0462,0.0421,0.0383,0.0304,0.0301,0.0299,0.0295,0.0343,0.0343,0.0343,0.0343,0.0343,0,0.0389,0.0422,0.0455,0.0479,0.0538,0.0552,0.062,0.0639,0.0695,0.077,0.0733,0.079,0.0671,0.0632,0.0524,0.0426,0.0451,0.032,0.03,0.0312,0.031,0.0309,0.0306,0.0342,0.0342,0.0342,0.0342,0,0.0414,0.0432,0.0485,0.0533,0.0552,0.0598,0.0684,0.0742,0.0788,0.0889,0.0913,0.0914,0.0866,0.0736,0.0621,0.0498,0.0397,0.035,0.0365,0.0347,0.0262,0.0261,0.026,0.026,0.0259,0.0258,0.0258,0,0.0431,0.0459,0.0526,0.0565,0.0589,0.0658,0.0718,0.0781,0.0861,0.0979,0.1044,0.1032,0.1032,0.0847,0.0647,0.0456,0.0416,0.0319,0.0276,0.0277,0.0257,0.0257,0.0257,0.0283,0.0283,0.0283,0.0283,0,0.0465,0.0486,0.053,0.061,0.0674,0.0761,0.0855,0.0936,0.1036,0.1141,0.1258,0.1269,0.1102,0.0918,0.0643,0.0505,0.0347,0.0308,0.0328,0.0301,0.0296,0.0277,0.0277,0.0281,0.0281,0.0281,0.0281,0.0281,0.0489,0.0526,0.0582,0.0659,0.074,0.0855,0.0945,0.1067,0.1217,0.1374,0.1378,0.1388,0.1172,0.0823,0.0596,0.0343,0.0362,0.0242,0.0244,0.0246,0.0252,0.0247,0.0223,0.0223,0.0222,0.0222,0.0222,0,0.0516,0.0559,0.0629,0.0728,0.0822,0.0867,0.1033,0.1142,0.1328,0.1436,0.1521,0.1294,0.1093,0.0836,0.048,0.0264,0.0238,0.0166,0.0189,0.0194,0.0197,0.0201,0.0157,0.0156,0.0155,0.0154,0,0,0.053,0.0591,0.0625,0.077,0.0855,0.0999,0.1102,0.1279,0.1387,0.1491,0.1488,0.1461,0.1159,0.0873,0.0592,0.0381,0.0327,0.0322,0.0401,0.0469,0.0474,0.0272,0.0288,0,0,0,0,0]}],[{"header":{"parameterUnit":"m.s-1","parameterCategory":2,"la1":30.2991,"la2":30.254,"lo1":-89.0895,"lo2":-89.0444,"dy":0.0017,"dx":0.0017,"nx":28,"ny":28,"refTime":"2025-06-13T09:00:00:Z","depth":"4","parameterNumber":2,"parameterNumberName":"U-component_of_CURRENTS"},"data":[0,0,0,0,0,0,0,0,0,0,0,0,0,0,0,0,0,0,0,0,0,0,0,0,0,0,0,0,0,0,0,0,0,0,0,0,0,0,0,0,0,0,0,0,0,0,0,0,0,0,0,0,0,0,0,0,0,0,0.1489,0.1489,0,0.1515,0.1515,0.1516,0.1548,0.1549,0.1549,0.155,0.1586,0.1586,0.1587,0,0,0,0,0,0,0,0,0,0,0,0,0,0.1463,0.1463,0.1489,0.1489,0.149,0.1515,0.1515,0.1516,0.1548,0.1549,0.1549,0.155,0.1586,0.1586,0.1587,0,0,0,0,0,0,0,0,0,0,0,0,0,0.1479,0.1463,0.1489,0.151,0.1512,0.1515,0.1515,0.1516,0.1548,0.1549,0.155,0.1551,0.1586,0.1586,0.1587,0.157,0,0,0.1588,0.1588,0,0,0,0,0,0,0,0,0.1478,0.1479,0.1506,0.1509,0.1511,0.1531,0.152,0.1535,0.1547,0.1533,0.155,0.1551,0.1569,0.1571,0.1571,0.1572,0.1573,0.1588,0.1589,0.1589,0.1589,0,0,0,0,0,0,0,0.1477,0.1478,0.1498,0.1507,0.151,0.1517,0.152,0.1522,0.1544,0.1534,0.1537,0.1542,0.157,0.157,0.1572,0.1574,0.1588,0.1589,0.1589,0.1589,0.1656,0.1657,0,0,0,0,0,0,0.1476,0.1477,0.1497,0.1499,0.1498,0.1517,0.1521,0.1522,0.1544,0.1548,0.1541,0.1543,0.1569,0.1571,0.1574,0.1639,0.1589,0.1589,0.159,0.1654,0.1656,0.1658,0,0,0,0,0,0,0.1475,0.1477,0.1496,0.149,0.1493,0.1517,0.1518,0.1522,0.1555,0.1549,0.1554,0.1573,0.157,0.1573,0.1604,0.1637,0.159,0.159,0.1653,0.1655,0.1657,0.1716,0,0,0,0,0,0,0.1474,0.1476,0.1494,0.149,0.1494,0.1515,0.1517,0.1522,0.1555,0.1559,0.1577,0.158,0.1571,0.1604,0.1605,0.1637,0.159,0.1651,0.1654,0.1656,0.1712,0.172,0.1726,0,0,0,0,0,0.1473,0.1484,0.1494,0.1498,0.1511,0.1516,0.1519,0.1537,0.1556,0.157,0.159,0.1581,0.1622,0.1605,0.1606,0.1639,0.165,0.1653,0.1656,0.1709,0.1718,0.1726,0,0,0,0,0,0,0.1483,0.1488,0.15,0.1514,0.1525,0.1522,0.1544,0.1555,0.1581,0.1599,0.1595,0.1598,0.1638,0.1631,0.1613,0.1668,0.1636,0.164,0.1676,0.1685,0.1692,0.1689,0.1591,0,0,0,0,0,0.1492,0.1506,0.1509,0.1526,0.1534,0.1547,0.1559,0.1572,0.1586,0.16,0.1613,0.1631,0.1646,0.1661,0.1668,0.1696,0.1698,0.172,0.1727,0.1733,0.1733,0.1774,0.1785,0.1669,0.1668,0.1668,0,0,0.1501,0.1508,0.1517,0.153,0.1543,0.1556,0.1557,0.1585,0.1606,0.1599,0.1644,0.1656,0.1659,0.1692,0.171,0.1695,0.1769,0.1738,0.1743,0.1738,0.1779,0.179,0.18,0.1671,0.167,0.167,0,0,0.1513,0.1534,0.1546,0.1557,0.1583,0.1588,0.1604,0.1621,0.1644,0.168,0.1685,0.1719,0.1741,0.175,0.1756,0.1807,0.1804,0.1818,0.1854,0.1895,0.1905,0.1914,0.1933,0.1942,0.1824,0.1824,0.1824,0,0.153,0.154,0.1552,0.1566,0.158,0.1606,0.1622,0.1644,0.1674,0.1695,0.1706,0.176,0.1767,0.1802,0.1824,0.1824,0.1841,0.182,0.1905,0.1913,0.1921,0.1938,0.1948,0.1827,0.1827,0.1826,0.1826,0,0.1536,0.156,0.157,0.1595,0.1613,0.1634,0.1659,0.1694,0.1731,0.175,0.1807,0.1824,0.1855,0.1869,0.1863,0.1924,0.1916,0.1908,0.1882,0.1937,0.1951,0.196,0.1832,0.183,0.1829,0.1829,0,0,0.1528,0.1567,0.1576,0.1592,0.1632,0.1642,0.169,0.1727,0.1764,0.1812,0.1858,0.1899,0.1922,0.193,0.1938,0.1974,0.2048,0.1973,0.1973,0.1989,0.2135,0.1988,0.1984,0.2064,0.2066,0.2068,0.2123,0,0.1534,0.156,0.1581,0.1617,0.163,0.1671,0.1706,0.1751,0.1799,0.1851,0.1893,0.1942,0.1942,0.1973,0.2011,0.2036,0.2076,0.2033,0.2081,0.2082,0.1943,0.1991,0.2074,0.213,0.2132,0.2133,0.2135,0,0.1524,0.1545,0.1578,0.1623,0.1634,0.1667,0.1731,0.1768,0.1845,0.1885,0.1948,0.1983,0.2047,0.2043,0.2122,0.21,0.2127,0.2143,0.2145,0.1991,0.1952,0.2064,0.2151,0.215,0.2149,0.2148,0.2147,0,0.1489,0.1539,0.1567,0.1583,0.1639,0.1675,0.1716,0.1786,0.1822,0.192,0.196,0.2037,0.2087,0.2138,0.2178,0.2167,0.2255,0.2239,0.213,0.212,0.221,0.22,0.2303,0.2303,0.2303,0.2303,0.2302,0,0.1462,0.1489,0.1562,0.1574,0.1616,0.1666,0.1724,0.1776,0.1853,0.1887,0.1982,0.2014,0.2121,0.2176,0.2203,0.2187,0.2281,0.2137,0.2126,0.2233,0.2225,0.2217,0.2206,0.2305,0.2304,0.2304,0.2303,0,0.141,0.1459,0.1497,0.1572,0.16,0.1635,0.1719,0.1745,0.1838,0.1889,0.1925,0.2027,0.2093,0.2171,0.2254,0.2199,0.2211,0.2187,0.2295,0.2289,0.2041,0.2033,0.2058,0.2053,0.2049,0.2046,0.2043,0,0.1379,0.1397,0.1488,0.1512,0.1553,0.1615,0.164,0.173,0.1747,0.1867,0.1864,0.1981,0.2036,0.2033,0.2127,0.2164,0.2148,0.2132,0.2081,0.203,0.2018,0.2016,0.2014,0.2037,0.2036,0.2035,0.2034,0,0.1323,0.1376,0.1409,0.146,0.1498,0.1517,0.1563,0.1562,0.165,0.1759,0.1769,0.1812,0.1881,0.1941,0.1992,0.2013,0.2124,0.209,0.2098,0.205,0.2005,0.1996,0.1999,0.202,0.2022,0.2023,0.2024,0,0.1291,0.1303,0.1359,0.1387,0.1427,0.1393,0.143,0.1438,0.1469,0.1594,0.1599,0.1727,0.1851,0.1862,0.1903,0.1917,0.1889,0.1821,0.1843,0.1859,0.1769,0.1681,0.1588,0,0,0,0,0,0.1249,0.1247,0.1272,0.1271,0.1298,0.1312,0.1356,0.1389,0.148,0.1443,0.1514,0.1571,0.163,0.17,0.1679,0.1817,0.1897,0.1782,0.183,0.1943,0.1959,0.1872,0,0,0,0,0,0,0.1217,0.1246,0.1243,0.1168,0.114,0.1132,0.1155,0.1208,0.1191,0.1315,0.1362,0.1469,0.1562,0.1635,0.1649,0.1671,0.1665,0.1871,0.1867,0.1934,0.1949,0.1962,0.1877,0,0,0,0,0]},{"header":{"parameterUnit":"m.s-1","parameterCategory":2,"la1":30.2991,"la2":30.254,"lo1":-89.0895,"lo2":-89.0444,"dy":0.0017,"dx":0.0017,"nx":28,"ny":28,"refTime":"2025-06-13T09:00:00:Z","depth":"4","parameterNumber":3,"parameterNumberName":"V-component_of_CURRENTS"},"data":[0,0,0,0,0,0,0,0,0,0,0,0,0,0,0,0,0,0,0,0,0,0,0,0,0,0,0,0,0,0,0,0,0,0,0,0,0,0,0,0,0,0,0,0,0,0,0,0,0,0,0,0,0,0,0,0,0,0,0.0088,0.0088,0,0.0073,0.0073,0.0072,0.0065,0.0065,0.0065,0.0065,0.0044,0.0043,0.0042,0,0,0,0,0,0,0,0,0,0,0,0,0,0.0086,0.0086,0.0088,0.0088,0.0088,0.0073,0.0073,0.0072,0.0065,0.0065,0.0065,0.0066,0.0044,0.0043,0.0042,0,0,0,0,0,0,0,0,0,0,0,0,0,0.008,0.0086,0.0088,0.0083,0.0083,0.0073,0.0073,0.0072,0.0065,0.0065,0.0065,0.0066,0.0044,0.0043,0.0042,0.0035,0,0,0.0039,0.0039,0,0,0,0,0,0,0,0,0.008,0.008,0.0084,0.0083,0.0083,0.0072,0.0064,0.006,0.0065,0.0071,0.0065,0.0066,0.0053,0.0051,0.0047,0.0034,0.0033,0.0039,0.0039,0.0038,0.0038,0,0,0,0,0,0,0,0.0081,0.008,0.0082,0.0084,0.0083,0.0072,0.0072,0.0063,0.0061,0.0071,0.007,0.0069,0.0052,0.0048,0.0047,0.0032,0.0039,0.0038,0.0038,0.0037,0.0026,0.0026,0,0,0,0,0,0,0.0085,0.0081,0.0082,0.0081,0.0082,0.0073,0.0072,0.0075,0.0061,0.006,0.0069,0.0069,0.005,0.0048,0.0046,0.0054,0.0038,0.0037,0.0037,0.0025,0.0026,0.0026,0,0,0,0,0,0,0.0085,0.0085,0.0083,0.0081,0.008,0.0073,0.0076,0.0074,0.0075,0.006,0.0058,0.0072,0.005,0.0047,0.0044,0.0052,0.0037,0.0036,0.0025,0.0026,0.0026,0.0058,0,0,0,0,0,0,0.0085,0.0085,0.0089,0.0081,0.008,0.0085,0.0076,0.0074,0.0075,0.0074,0.0062,0.006,0.005,0.0046,0.0043,0.005,0.0035,0.0025,0.0025,0.0026,0.0056,0.0059,0.0061,0,0,0,0,0,0.0085,0.009,0.0089,0.0089,0.0085,0.0085,0.0084,0.0078,0.0075,0.0079,0.007,0.0061,0.0047,0.0045,0.0042,0.0049,0.0025,0.0025,0.0026,0.0055,0.0059,0.0061,0,0,0,0,0,0,0.0089,0.009,0.0089,0.0094,0.0093,0.0084,0.0085,0.0082,0.0078,0.0077,0.0063,0.0061,0.0062,0.005,0.0048,0.0047,0.0034,0.0034,0.0058,0.0061,0.0063,0.0081,0.0035,0,0,0,0,0,0.0092,0.0098,0.0096,0.01,0.01,0.0093,0.0092,0.009,0.0085,0.0083,0.0076,0.0066,0.0061,0.0057,0.005,0.0048,0.0035,0.005,0.0053,0.0055,0.0067,0.0053,0.0056,0.0028,0.0028,0.0028,0,0,0.0093,0.0095,0.0098,0.0101,0.0098,0.0105,0.0093,0.0095,0.0104,0.0081,0.0089,0.0076,0.0062,0.0062,0.0061,0.0054,0.0054,0.0056,0.0058,0.0069,0.0054,0.0057,0.006,0.0028,0.0028,0.0028,0,0,0.0103,0.0103,0.0112,0.0115,0.0116,0.0113,0.0117,0.0113,0.0116,0.012,0.0106,0.01,0.0091,0.0083,0.0078,0.009,0.0069,0.0085,0.0112,0.0098,0.01,0.0102,0.008,0.008,0.0085,0.0085,0.0085,0,0.0105,0.0119,0.0114,0.0125,0.0132,0.0121,0.0135,0.0134,0.0132,0.0137,0.0129,0.012,0.0104,0.0107,0.011,0.0097,0.0083,0.0101,0.0102,0.0104,0.0105,0.0082,0.0081,0.0087,0.0087,0.0086,0.0086,0,0.0123,0.0135,0.014,0.0153,0.0159,0.0168,0.017,0.0175,0.0175,0.0174,0.018,0.016,0.0155,0.0146,0.0132,0.0136,0.012,0.0107,0.0095,0.011,0.0084,0.0083,0.0089,0.0089,0.0088,0.0088,0,0,0.0129,0.015,0.0153,0.0168,0.0177,0.0185,0.0201,0.0214,0.0231,0.0222,0.0242,0.0224,0.0211,0.0204,0.0182,0.0171,0.0159,0.0147,0.0145,0.0128,0.0123,0.0115,0.0113,0.0146,0.0146,0.0147,0.0098,0,0.0146,0.0176,0.0182,0.0212,0.0229,0.023,0.0251,0.026,0.0264,0.0278,0.026,0.0268,0.0233,0.0235,0.0215,0.0178,0.0159,0.0173,0.011,0.0108,0.0102,0.0113,0.0147,0.0097,0.0096,0.0096,0.0096,0,0.0165,0.0185,0.0219,0.0254,0.0262,0.0278,0.0311,0.0329,0.0341,0.0346,0.0343,0.0327,0.0311,0.0282,0.0223,0.0233,0.0184,0.0151,0.0148,0.0133,0.0099,0.0081,0.0094,0.0094,0.0094,0.0094,0.0094,0,0.0178,0.0212,0.0244,0.0254,0.0288,0.0308,0.033,0.035,0.0381,0.0392,0.0412,0.038,0.0378,0.0315,0.0237,0.0232,0.017,0.0149,0.0095,0.0093,0.01,0.0098,0.0111,0.0111,0.0111,0.0111,0.0112,0,0.0197,0.0222,0.0254,0.0272,0.0318,0.0334,0.0387,0.0401,0.0437,0.0482,0.0451,0.047,0.0389,0.0341,0.0258,0.0173,0.0179,0.0108,0.0086,0.0112,0.0113,0.0098,0.0097,0.011,0.011,0.011,0.0111,0,0.0206,0.0225,0.0266,0.0308,0.0326,0.0362,0.0431,0.0471,0.0497,0.0555,0.0566,0.0543,0.0485,0.039,0.0289,0.021,0.0123,0.0088,0.0124,0.0103,0.0047,0.0049,0.0028,0.0027,0.0027,0.0026,0.0026,0,0.0213,0.0234,0.0292,0.0325,0.0347,0.0405,0.0452,0.0498,0.0547,0.0599,0.063,0.0597,0.0565,0.0417,0.0305,0.0148,0.0122,0.0063,0.0058,0.0061,0.0041,0.0043,0.0045,0.0025,0.0025,0.0025,0.0025,0,0.0227,0.0248,0.0283,0.035,0.0402,0.047,0.054,0.0584,0.0648,0.0667,0.0691,0.0623,0.0559,0.0431,0.031,0.0194,0.0094,0.0058,0.0058,0.0053,0.0057,0.0039,0.0041,0.0023,0.0024,0.0024,0.0024,0,0.0238,0.0264,0.0313,0.0374,0.0443,0.0522,0.056,0.0624,0.0675,0.073,0.0731,0.0662,0.0621,0.0455,0.0341,0.023,0.0197,0.0142,0.0137,0.0137,0.0179,0.0202,0.0201,0,0,0,0,0,0.0248,0.0281,0.0335,0.0407,0.0478,0.0524,0.0614,0.0652,0.0711,0.0735,0.074,0.068,0.0534,0.0468,0.0358,0.0319,0.0166,0.0182,0.0097,0.0014,0.0016,0.0046,0,0,0,0,0,0,0.0255,0.0303,0.0333,0.0425,0.0479,0.0566,0.063,0.0673,0.0691,0.0726,0.0652,0.0627,0.0484,0.0595,0.0346,0.0314,0.0239,0.0118,0.0114,0.0013,0.0015,0.0016,0.0047,0,0,0,0,0]}]]